TimeCST,TemperatureF,Dew PointF,Humidity,Sea Level PressureIn,VisibilityMPH,Wind Direction,Wind SpeedMPH,Gust SpeedMPH,PrecipitationIn,Events,Conditions,WindDirDegrees,DateUTC
12:56 AM,48.9,46.9,93,29.95,4.0,Calm,Calm,-,N/A,,Clear,0,2013-02-24 06:56:00
1:24 AM,46.4,46.4,100,29.96,1.0,Calm,Calm,-,N/A,,Clear,0,2013-02-24 07:24:00
1:31 AM,46.4,44.6,93,29.96,0.5,Calm,Calm,-,N/A,Fog,Fog,0,2013-02-24 07:31:00
1:56 AM,45.0,44.1,97,29.95,0.5,Calm,Calm,-,N/A,Fog,Fog,0,2013-02-24 07:56:00
2:56 AM,44.1,43.0,96,29.94,0.2,Calm,Calm,-,N/A,Fog,Fog,0,2013-02-24 08:56:00
3:56 AM,44.1,43.0,96,29.96,0.2,Calm,Calm,-,N/A,Fog,Fog,0,2013-02-24 09:56:00
4:56 AM,43.0,42.1,97,29.96,0.2,NNE,4.6,-,N/A,Fog,Fog,20,2013-02-24 10:56:00
5:56 AM,42.1,41.0,96,29.98,0.2,North,3.5,-,N/A,Fog,Fog,360,2013-02-24 11:56:00
6:56 AM,42.1,41.0,96,29.99,0.2,NE,3.5,-,N/A,Fog,Fog,50,2013-02-24 12:56:00
7:51 AM,46.4,44.6,93,30.01,1.8,ENE,4.6,-,N/A,,Overcast,60,2013-02-24 13:51:00
7:53 AM,46.4,44.6,93,30.01,3.0,ENE,5.8,-,N/A,,Mostly Cloudy,60,2013-02-24 13:53:00
7:56 AM,46.0,44.1,93,30.01,5.0,NE,5.8,-,N/A,,Mostly Cloudy,50,2013-02-24 13:56:00
8:08 AM,46.4,44.6,93,30.01,7.0,NNE,4.6,-,N/A,,Scattered Clouds,30,2013-02-24 14:08:00
8:56 AM,52.0,45.0,77,30.02,10.0,NE,5.8,-,N/A,,Clear,50,2013-02-24 14:56:00
9:56 AM,57.9,46.0,65,30.01,10.0,East,5.8,-,N/A,,Clear,80,2013-02-24 15:56:00
10:56 AM,63.0,43.0,48,30.00,10.0,Variable,4.6,-,N/A,,Clear,0,2013-02-24 16:56:00
11:56 AM,66.0,42.1,42,29.98,10.0,Variable,5.8,-,N/A,,Clear,0,2013-02-24 17:56:00
12:56 PM,69.1,39.9,35,29.95,10.0,ESE,6.9,-,N/A,,Clear,120,2013-02-24 18:56:00
1:56 PM,71.1,37.9,30,29.94,10.0,ENE,3.5,-,N/A,,Clear,70,2013-02-24 19:56:00
2:56 PM,70.0,35.1,28,29.93,10.0,Variable,4.6,-,N/A,,Clear,0,2013-02-24 20:56:00
3:56 PM,70.0,37.0,30,29.92,10.0,East,3.5,-,N/A,,Clear,80,2013-02-24 21:56:00
4:56 PM,69.1,37.9,32,29.92,10.0,ENE,4.6,-,N/A,,Clear,70,2013-02-24 22:56:00
5:56 PM,63.0,42.1,46,29.92,10.0,ENE,3.5,-,N/A,,Clear,60,2013-02-24 23:56:00
6:56 PM,59.0,43.0,55,29.93,10.0,NNE,4.6,-,N/A,,Clear,30,2013-02-25 00:56:00
7:56 PM,57.9,43.0,58,29.94,10.0,NE,3.5,-,N/A,,Clear,50,2013-02-25 01:56:00
8:56 PM,57.9,41.0,53,29.93,10.0,ENE,5.8,-,N/A,,Clear,60,2013-02-25 02:56:00
9:56 PM,59.0,39.9,49,29.91,10.0,ENE,4.6,-,N/A,,Clear,70,2013-02-25 03:56:00
10:56 PM,59.0,41.0,51,29.89,10.0,East,5.8,-,N/A,,Partly Cloudy,90,2013-02-25 04:56:00
11:56 PM,59.0,41.0,51,29.86,10.0,ENE,5.8,-,N/A,,Overcast,70,2013-02-25 05:56:00